Temperature
20 20 20 20 23 24 22 22 22 22 22 21 21 21 21 21 21 19 17 17 17 17 17 17 17 17 17 17 17 17 17 17 17 17 17 17 17 17 17 17 17 17 17 17 17 17 17 18 18
19 20 20 22 24 23 22 22 22 22 21 20 21 21 21 19 18 17 16 16 17 17 16 16 17 17 17 17 17 17 17 17 17 17 17 17 17 17 17 17 17 17 17 17 17 17 17 17 18
20 20 21 24 24 23 22 22 22 21 20 21 21 20 20 18 17 17 17 16 16 16 16 16 17 17 17 17 17 17 17 17 17 17 17 17 17 17 17 17 17 17 17 17 17 17 17 17 17
20 20 22 24 23 22 22 22 22 21 21 20 21 20 19 17 17 17 17 16 16 16 16 16 17 17 17 17 17 17 17 17 17 16 16 16 16 16 16 17 17 17 17 17 17 17 17 17 17
20 22 23 23 22 22 22 22 21 22 21 20 21 20 18 17 17 17 17 16 16 16 16 16 17 16 16 16 16 16 16 16 16 16 16 16 16 16 16 17 17 17 17 17 17 17 17 17 17
22 24 24 23 22 22 22 21 21 22 21 20 20 20 18 17 17 17 16 16 17 16 16 16 16 16 16 16 16 16 16 16 16 16 16 16 16 16 16 16 17 17 17 17 17 17 17 17 17
23 24 23 23 22 22 22 21 22 21 21 20 20 20 18 17 17 17 17 17 17 16 16 16 16 16 16 16 16 16 16 16 16 16 16 16 16 16 16 16 17 17 17 17 17 17 17 17 17
21 24 23 23 22 22 22 21 21 21 20 19 20 20 19 17 17 17 17 17 17 17 16 16 16 16 16 16 16 16 16 16 16 16 16 16 16 16 16 16 16 16 17 16 17 17 17 17 17
21 24 23 23 22 22 22 21 20 20 20 19 19 19 18 17 17 17 17 17 17 16 16 16 16 16 16 16 16 16 16 16 16 16 16 16 16 16 16 16 16 16 16 16 16 16 17 17 17
23 23 22 23 23 22 22 21 21 21 20 20 19 18 17 17 17 17 17 17 17 17 17 16 17 16 16 16 16 16 16 16 16 16 16 16 16 16 16 16 16 16 16 16 16 16 16 16 16
23 22 22 22 22 22 22 21 21 21 21 20 19 18 18 17 17 18 18 17 17 17 17 17 17 16 16 16 16 16 16 16 16 16 16 16 16 16 16 16 16 16 16 16 16 16 16 16 16
23 22 22 22 21 21 21 21 21 21 20 20 19 19 18 18 18 18 17 17 17 17 17 16 16 17 16 16 16 16 16 16 16 16 16 16 16 16 16 16 16 16 16 16 16 16 16 16 16
23 22 21 21 21 21 21 21 21 20 19 19 19 18 18 18 18 18 17 17 17 17 17 17 16 17 17 16 16 16 16 16 16 16 16 16 16 16 16 16 16 16 16 16 16 16 16 16 16
22 22 22 21 21 21 21 21 20 19 19 19 19 18 18 18 18 18 18 18 18 17 17 17 17 17 16 16 16 16 16 16 16 16 16 16 16 16 16 16 16 16 16 16 16 16 16 16 16
22 22 22 22 22 21 22 21 21 19 19 19 19 19 18 18 18 18 18 18 18 18 17 17 17 16 16 16 16 16 16 16 16 16 16 16 16 16 16 16 16 16 16 16 16 16 16 16 16
23 23 22 22 22 21 22 21 21 19 19 19 19 19 18 18 18 18 18 18 18 17 17 17 16 16 16 16 16 16 16 16 16 16 16 16 16 16 16 16 16 16 16 16 16 16 16 16 16
23 22 22 22 22 22 22 22 21 19 20 20 19 19 18 18 18 18 18 18 17 17 17 17 16 16 16 16 16 16 16 16 16 15 15 16 16 16 16 16 16 16 16 15 15 15 16 16 15
22 23 22 22 22 22 22 22 22 20 20 20 20 19 19 19 18 18 17 17 17 17 17 17 16 16 16 16 16 16 16 15 15 15 15 15 15 15 15 15 15 16 15 15 15 15 15 15 15
23 23 22 23 23 22 22 22 22 21 20 20 20 20 19 19 18 18 17 17 17 17 17 17 16 16 16 16 16 16 15 15 15 15 15 15 15 15 15 15 15 15 15 15 15 15 15 15 15
23 23 23 23 22 22 22 22 23 22 21 20 20 20 20 19 19 18 17 17 17 17 17 17 16 16 16 16 16 15 15 15 15 15 15 15 15 15 15 15 15 15 15 15 15 15 15 15 15
23 23 23 22 22 22 22 22 23 22 21 20 20 20 20 19 19 18 18 18 17 17 17 17 16 16 16 16 16 15 15 15 15 15 15 15 15 15 15 15 15 15 15 15 15 15 15 15 15
22 23 23 22 22 22 22 22 23 23 22 21 21 20 20 19 19 18 18 18 17 17 17 17 17 16 16 16 16 16 15 15 15 15 15 15 15 15 15 15 15 15 15 15 15 15 15 15 15
23 22 22 22 22 22 23 22 23 23 22 22 22 21 20 19 19 18 18 18 17 17 17 17 17 16 16 16 16 15 15 15 15 15 15 15 15 15 15 15 15 15 15 15 15 15 15 15 15
22 22 22 22 23 22 23 22 23 24 23 23 23 21 20 20 19 19 18 18 17 17 17 17 16 16 16 16 16 15 15 15 15 15 15 15 15 15 15 15 15 15 15 15 15 15 15 14 14
23 22 22 22 22 22 23 22 23 24 24 23 23 22 21 20 19 19 18 18 17 17 17 17 17 16 16 16 16 16 15 15 15 15 15 15 15 15 15 15 15 15 15 14 14 14 14 14 14
23 23 22 21 22 22 22 22 24 24 23 22 22 21 21 20 19 19 18 18 17 17 17 17 17 16 16 16 16 16 15 15 15 15 15 15 15 15 15 15 15 14 14 14 14 14 14 14 14
23 23 23 23 22 22 23 23 24 24 23 22 22 21 21 20 19 19 18 18 17 17 17 17 17 16 16 16 16 15 15 15 15 15 15 15 15 15 15 15 15 14 14 14 14 14 14 14 14
23 23 23 22 21 21 22 23 24 24 23 23 22 22 21 20 20 19 18 18 18 17 17 17 17 16 16 16 16 15 15 15 15 15 15 15 15 15 15 15 15 14 14 14 14 14 14 14 14
22 22 23 23 22 22 22 23 24 24 23 23 23 22 21 20 20 19 18 18 18 17 17 17 17 16 16 16 16 15 15 15 15 15 15 15 15 15 15 15 14 14 14 14 14 14 14 14 14
23 23 23 22 22 22 22 23 24 23 23 22 22 21 20 20 19 19 18 18 18 17 17 17 17 16 16 16 16 15 15 15 15 15 15 15 15 15 15 15 15 14 14 14 14 14 14 14 14
Wind_Speed
3 2 1 2 2 3 5 4 3 5 4 5 5 5 6 6 5 5 3 3 5 6 8 9 10 10 11 12 11 12 11 12 12 11 12 12 12 12 11 11 10 10 11 11 11 10 10 10 9
1 1 2 2 1 4 5 4 6 6 5 5 6 6 7 7 6 5 4 5 6 7 8 10 10 10 11 12 12 12 11 11 11 11 12 12 12 12 12 11 11 10 10 10 10 10 10 9 9
1 1 1 0 2 4 6 6 7 7 6 4 4 5 5 5 4 4 4 6 7 7 8 10 10 10 11 11 12 12 12 11 11 11 11 12 12 12 12 11 11 10 10 10 10 9 9 9 9
1 1 1 3 8 6 6 6 6 7 5 5 5 6 5 5 3 5 7 7 8 8 9 11 10 9 10 11 11 12 11 11 11 11 11 11 11 11 11 11 11 11 10 10 10 10 10 10 10
1 1 3 6 7 6 5 4 4 4 4 5 5 7 7 5 7 8 7 7 8 8 9 10 10 9 11 11 11 10 10 10 10 10 11 11 11 11 11 10 10 10 10 10 10 10 10 10 11
1 1 4 7 7 6 5 4 5 6 7 6 6 7 6 6 8 8 7 7 8 8 8 9 9 10 10 10 10 9 9 9 10 10 10 11 11 11 11 11 10 10 11 11 11 11 10 11 11
1 2 5 7 8 6 5 4 4 6 6 5 4 6 6 6 6 7 8 7 7 7 7 7 8 9 9 9 9 9 8 9 9 10 10 10 11 11 10 11 10 10 10 10 10 10 10 11 11
1 3 7 6 6 5 6 5 4 5 6 5 3 5 7 8 7 7 7 7 7 7 6 7 7 7 7 8 9 9 8 8 9 9 9 8 8 9 8 10 10 10 10 10 10 10 10 10 11
1 3 5 5 5 6 7 6 5 5 7 5 4 5 8 10 9 8 7 7 6 6 5 5 6 6 6 6 7 6 7 7 5 7 6 4 7 8 8 11 10 10 10 10 10 9 9 8 10
1 4 5 4 4 6 7 6 6 6 7 6 7 9 11 10 9 8 6 6 6 5 5 4 4 5 5 5 5 5 6 5 6 6 6 6 7 8 8 9 9 9 8 9 9 7 5 3 7
3 5 6 5 5 6 7 6 5 6 5 5 9 12 12 10 8 7 6 4 4 5 4 3 4 4 4 4 4 4 4 4 6 6 6 5 6 5 6 5 6 6 5 7 6 4 6 6 7
6 6 5 6 6 6 6 6 5 3 4 6 9 12 12 10 8 6 5 4 4 4 4 3 3 4 4 4 4 3 4 4 5 5 6 5 5 5 5 5 6 5 6 6 5 5 6 7 7
7 7 7 7 7 6 7 6 5 4 5 8 10 10 10 9 7 6 5 5 4 4 4 3 3 3 3 4 3 3 3 4 5 5 5 5 4 4 4 5 5 6 6 5 5 5 6 7 7
7 8 7 6 6 5 6 5 4 5 8 10 10 10 9 7 6 6 5 4 4 4 4 4 4 3 3 3 3 4 4 4 4 5 4 5 4 4 4 4 4 5 5 5 5 6 5 6 6
9 9 7 4 4 4 5 4 4 7 9 10 10 9 8 7 6 5 4 4 4 4 4 4 4 3 3 3 4 4 3 4 4 4 4 5 4 4 3 3 4 3 4 4 5 6 5 5 5
6 5 5 4 3 3 4 3 5 8 9 9 9 9 8 7 6 5 4 4 4 4 4 5 4 4 4 3 3 3 4 4 3 3 3 4 4 4 3 3 3 3 3 3 3 3 4 5 5
5 5 5 4 3 3 3 2 6 8 9 9 9 9 8 7 6 5 5 4 4 5 4 5 5 4 4 3 3 3 3 3 3 3 3 4 4 3 3 3 2 3 2 2 2 3 3 4 4
6 5 4 4 3 4 4 3 6 9 9 9 9 9 9 8 8 6 5 5 5 5 4 5 5 4 4 3 3 3 3 3 3 3 3 4 4 4 4 2 3 3 2 2 2 3 3 3 3
4 4 4 3 2 4 5 4 6 9 9 10 10 10 10 9 8 7 7 6 6 6 5 5 5 5 4 3 3 2 3 2 3 3 3 3 3 3 3 2 2 2 2 2 2 3 3 3 2
6 5 4 3 3 3 4 5 5 8 11 11 11 11 11 10 9 9 8 8 7 7 6 6 5 5 4 2 2 2 2 2 2 2 3 3 3 3 3 3 2 2 2 2 2 1 1 2 1
6 6 4 3 3 4 4 5 6 7 9 10 11 11 11 11 11 10 9 9 8 7 7 6 6 6 5 4 3 3 3 2 2 2 2 3 3 3 3 3 3 2 2 2 1 1 1 1 0
6 5 5 4 4 3 4 4 4 7 10 11 12 13 13 13 12 11 10 10 9 8 7 7 6 6 6 5 4 4 2 2 1 1 2 3 3 3 3 2 3 3 2 2 1 1 0 0 0
3 4 5 5 5 5 5 5 3 5 8 11 13 14 14 14 13 12 11 11 10 9 7 7 6 6 6 5 5 4 3 2 2 2 2 2 2 2 2 2 2 2 2 2 2 1 1 0 1
6 6 5 5 6 5 5 5 4 4 6 7 10 13 15 14 14 13 12 11 10 9 8 7 7 7 6 6 6 5 4 3 3 2 2 2 2 1 2 2 2 2 2 2 2 2 1 1 1
8 6 4 5 5 3 2 5 4 2 3 4 7 11 13 14 14 13 13 12 11 10 9 9 8 8 7 7 6 5 4 4 3 2 2 2 1 1 1 1 1 2 2 2 2 2 2 1 1
9 9 4 3 3 2 3 5 2 1 3 4 5 8 11 13 13 13 13 12 12 11 11 10 10 9 8 7 6 5 5 4 3 2 2 2 1 1 1 1 2 2 2 2 2 1 2 2 1
8 8 6 5 5 4 3 3 3 3 3 3 5 7 10 13 13 13 13 12 12 11 11 11 10 9 9 8 7 6 5 4 3 3 3 2 2 2 2 2 2 2 2 1 1 1 2 1 1
7 7 6 5 4 4 4 5 2 2 3 3 5 7 9 11 12 12 12 12 11 11 10 11 10 10 9 9 7 6 5 5 4 3 3 3 3 2 2 2 2 2 2 1 1 1 1 1 2
8 9 8 6 5 4 3 1 0 1 1 2 3 5 8 10 11 11 11 11 11 10 10 11 10 10 9 9 8 7 6 6 5 4 4 4 3 3 3 2 2 1 1 2 2 1 1 1 1
9 9 10 8 6 6 5 2 2 1 1 1 2 4 7 9 10 10 10 10 10 10 11 11 10 10 9 9 8 8 7 6 6 5 5 5 4 4 3 3 2 2 1 1 2 2 2 1 1
Wind_Direction
141 151 217 233 199 101 80 70 74 93 79 72 68 74 79 57 48 80 84 74 82 81 81 89 82 79 83 82 79 79 80 79 76 72 71 70 69 70 72 75 76 78 77 74 73 72 70 67 64
93 186 227 241 175 114 87 85 88 77 94 103 82 76 77 69 58 87 98 90 92 86 84 82 81 77 79 79 77 77 78 79 78 73 70 68 67 68 70 73 75 75 74 73 72 71 69 66 64
144 255 277 137 92 91 103 99 99 94 88 92 87 65 59 69 75 89 98 111 101 92 90 86 79 76 78 79 77 75 74 76 76 74 70 68 66 65 67 69 71 73 73 72 71 70 68 66 63
219 191 145 103 95 78 95 110 115 116 91 71 98 88 78 59 69 97 108 109 102 97 94 89 79 79 80 79 77 74 72 72 72 73 71 68 66 65 65 66 68 70 73 73 71 70 69 66 64
240 194 131 112 98 94 95 103 120 109 104 92 94 97 89 68 88 104 108 106 100 94 91 91 83 82 80 77 74 72 71 74 74 72 71 67 65 65 64 65 67 70 74 74 71 72 71 68 65
174 180 135 120 113 110 105 111 121 104 109 106 101 103 90 96 106 108 110 106 100 95 90 92 93 84 78 73 71 69 69 70 72 71 68 65 64 64 63 63 67 71 74 75 74 73 73 69 65
97 111 117 122 125 122 117 117 116 116 114 103 110 110 115 115 109 114 111 106 101 99 94 91 92 94 88 74 64 64 65 65 68 68 67 66 66 65 64 65 67 72 74 76 77 77 75 71 67
67 129 126 127 133 121 125 115 99 110 108 107 117 122 131 135 129 122 114 107 103 102 97 92 89 84 85 87 72 63 64 66 67 68 67 72 84 81 72 75 69 71 76 77 77 77 80 77 71
224 146 129 124 131 124 138 128 108 109 116 112 97 98 120 132 135 130 123 117 108 104 101 95 95 90 83 77 80 78 79 73 81 86 80 74 69 70 77 66 68 72 76 77 77 79 85 92 88
127 118 103 101 114 125 133 127 130 135 127 122 117 115 127 136 139 138 134 125 119 115 108 105 100 97 94 84 84 74 71 69 64 65 65 61 63 62 64 86 77 77 83 88 81 88 108 97 86
94 100 108 107 110 124 125 123 135 143 135 141 141 140 143 143 145 145 135 126 122 119 111 111 111 101 93 95 85 81 75 71 66 56 62 59 64 70 65 71 84 85 88 85 92 98 72 73 68
108 101 109 113 118 125 127 130 125 115 111 127 137 144 147 152 151 149 142 139 135 124 122 111 117 113 101 95 90 80 75 67 63 53 52 55 55 56 61 65 64 69 74 74 76 73 77 72 73
113 109 106 111 116 122 124 123 119 108 122 132 137 145 149 151 148 142 143 144 136 133 138 135 133 114 102 93 91 88 75 60 68 54 44 56 58 61 65 72 66 64 70 78 75 80 77 72 67
116 118 116 118 119 128 130 126 129 127 140 141 146 151 153 152 155 150 153 146 136 137 143 143 139 123 115 110 100 83 80 77 64 59 47 52 58 59 61 71 67 65 64 67 74 77 78 73 68
128 126 124 126 135 143 152 142 147 147 154 154 157 156 156 161 169 168 159 157 152 147 154 144 139 133 130 116 93 83 79 76 68 59 50 57 56 58 68 68 72 68 65 72 71 78 78 78 78
151 158 153 143 154 170 208 169 141 157 166 165 166 164 166 171 181 171 163 164 158 157 152 144 150 145 128 114 112 97 80 71 74 63 47 58 64 64 70 71 75 74 69 73 82 82 84 83 76
182 176 163 158 169 180 212 186 157 171 178 176 176 175 178 177 183 176 174 170 160 161 156 148 147 147 132 116 111 93 87 78 70 67 54 51 56 65 81 71 69 82 86 88 92 83 83 87 82
177 180 180 180 170 199 213 208 176 183 191 191 188 186 188 186 184 180 181 176 167 160 158 154 149 149 137 138 122 109 95 88 77 70 61 52 52 56 70 81 76 82 89 87 100 97 88 87 94
184 191 193 191 178 215 228 228 204 191 199 202 199 196 195 191 184 180 180 178 173 165 165 163 163 157 154 150 156 143 119 104 93 73 62 59 56 53 62 61 69 75 88 89 107 110 110 105 109
197 199 193 180 184 231 245 250 227 204 207 209 205 201 196 192 188 182 185 185 184 176 177 173 172 167 164 161 157 141 122 111 87 80 62 49 54 50 54 66 78 78 87 98 96 120 121 101 0
207 216 212 207 204 224 258 251 222 206 210 211 214 209 201 199 198 190 192 192 190 188 185 185 182 175 170 166 157 150 144 151 132 110 87 59 54 55 50 65 72 73 80 89 110 153 178 156 119
214 218 219 214 228 237 247 277 233 207 208 211 212 208 206 203 204 200 197 196 198 194 187 189 182 174 169 171 176 171 167 154 127 104 102 93 68 60 55 65 78 82 75 82 98 98 89 260 221
208 182 205 223 243 258 242 265 254 196 217 217 211 209 207 205 205 202 200 199 198 193 188 187 181 178 175 179 175 184 173 152 139 135 123 111 83 61 66 69 83 91 85 75 61 55 32 10 337
167 171 188 220 238 250 244 252 273 216 228 217 205 205 204 203 202 201 199 198 197 191 187 187 186 182 178 183 182 187 174 168 163 159 136 131 112 87 81 86 87 90 86 84 76 75 68 31 22
203 212 212 214 221 242 222 247 257 260 244 239 215 203 200 198 197 196 194 193 192 190 189 189 189 185 184 187 187 186 180 181 177 172 160 161 135 113 86 102 102 90 82 83 80 77 61 59 49
208 222 232 242 246 258 216 244 251 236 251 243 226 204 195 194 196 196 195 192 191 191 191 192 190 186 184 188 188 188 181 183 176 182 172 171 155 132 115 101 100 99 99 104 87 72 66 55 56
207 220 244 264 263 258 235 239 241 213 210 198 193 189 192 192 193 195 193 192 192 192 192 193 190 187 186 188 187 189 186 183 181 189 178 172 164 152 157 128 116 113 108 98 105 87 89 77 57
232 215 214 237 248 244 245 243 241 190 195 180 183 185 187 189 191 192 192 192 192 191 191 191 191 189 187 188 188 185 191 190 195 190 184 181 177 170 167 152 125 125 128 130 115 102 81 111 84
196 206 221 230 247 258 261 228 80 273 207 192 181 179 180 185 188 188 187 189 188 187 187 187 188 188 187 189 189 187 189 190 196 194 188 186 186 183 180 162 152 148 154 151 150 155 141 123 108
225 224 221 228 228 241 263 262 114 237 223 215 193 173 176 180 182 181 181 182 183 185 187 188 188 189 188 188 188 186 185 189 196 194 192 192 189 184 181 171 169 158 160 171 171 167 169 163 128
Height
1521 1521 1522 1523 1522 1522 1528 1531 1529 1530 1532 1535 1535 1535 1535 1537 1539 1547 1548 1546 1546 1546 1545 1545 1545 1545 1545 1545 1545 1545 1544 1544 1544 1544 1543 1543 1542 1541 1541 1540 1540 1540 1540 1540 1539 1539 1539 1538 1538
1522 1522 1524 1523 1519 1526 1533 1531 1532 1533 1535 1537 1537 1537 1538 1541 1544 1546 1546 1547 1547 1547 1548 1548 1547 1547 1547 1547 1547 1546 1546 1546 1545 1545 1545 1544 1544 1543 1543 1542 1542 1542 1542 1541 1541 1540 1540 1540 1540
1522 1523 1525 1521 1522 1528 1534 1533 1533 1536 1537 1538 1539 1540 1542 1545 1546 1547 1548 1548 1549 1549 1549 1549 1549 1549 1548 1548 1548 1548 1548 1548 1547 1547 1547 1546 1546 1545 1545 1544 1544 1544 1543 1543 1543 1542 1542 1541 1541
1524 1526 1525 1523 1528 1530 1531 1533 1535 1537 1539 1539 1540 1542 1545 1548 1548 1548 1549 1550 1551 1551 1551 1551 1551 1551 1550 1550 1550 1550 1550 1549 1549 1549 1549 1548 1548 1547 1547 1546 1546 1545 1545 1544 1544 1544 1544 1543 1543
1524 1525 1524 1527 1531 1532 1534 1535 1536 1537 1539 1541 1541 1544 1547 1549 1549 1550 1551 1552 1552 1553 1553 1553 1552 1552 1552 1552 1552 1552 1552 1551 1551 1551 1550 1550 1550 1549 1548 1548 1548 1547 1547 1546 1546 1546 1545 1545 1544
1526 1523 1524 1531 1533 1534 1536 1537 1538 1538 1541 1543 1544 1545 1550 1551 1551 1552 1552 1553 1554 1554 1554 1555 1554 1554 1554 1554 1554 1554 1554 1554 1553 1553 1552 1552 1552 1551 1551 1550 1550 1549 1548 1548 1548 1547 1547 1546 1546
1527 1524 1526 1530 1534 1536 1537 1539 1539 1540 1542 1544 1545 1546 1550 1552 1553 1554 1555 1555 1556 1556 1557 1557 1557 1557 1556 1556 1556 1556 1556 1555 1555 1555 1555 1554 1554 1553 1553 1552 1552 1551 1550 1550 1549 1549 1549 1548 1547
1527 1526 1529 1530 1534 1536 1539 1540 1541 1542 1544 1547 1547 1547 1551 1554 1554 1555 1556 1557 1558 1558 1558 1559 1559 1559 1559 1559 1558 1558 1557 1557 1557 1557 1557 1556 1556 1556 1555 1554 1554 1553 1552 1552 1551 1551 1551 1550 1549
1528 1527 1530 1532 1534 1536 1539 1541 1543 1544 1545 1547 1548 1549 1552 1553 1555 1556 1558 1559 1559 1560 1560 1560 1561 1561 1561 1561 1560 1560 1560 1559 1559 1559 1559 1558 1559 1559 1558 1556 1556 1555 1554 1554 1553 1553 1553 1552 1551
1528 1528 1532 1533 1534 1536 1539 1541 1543 1545 1546 1548 1550 1551 1553 1554 1556 1557 1558 1559 1560 1561 1562 1562 1562 1563 1563 1562 1562 1562 1562 1562 1562 1562 1561 1561 1561 1560 1560 1558 1558 1557 1556 1556 1555 1555 1555 1555 1555
1529 1531 1534 1536 1537 1538 1540 1542 1544 1544 1545 1547 1549 1552 1554 1556 1557 1559 1560 1560 1562 1562 1563 1563 1564 1564 1564 1564 1564 1564 1564 1563 1564 1564 1563 1563 1562 1562 1562 1561 1560 1560 1559 1559 1558 1558 1558 1557 1556
1531 1534 1535 1537 1539 1540 1541 1543 1544 1545 1547 1549 1550 1552 1555 1556 1558 1559 1560 1561 1562 1563 1564 1564 1565 1565 1565 1566 1566 1566 1565 1565 1565 1565 1565 1564 1564 1564 1563 1563 1562 1562 1561 1560 1560 1560 1560 1559 1559
1532 1536 1538 1539 1540 1541 1542 1544 1545 1547 1549 1550 1552 1554 1555 1557 1559 1560 1561 1562 1563 1564 1564 1565 1565 1566 1567 1567 1566 1567 1566 1566 1567 1566 1566 1566 1565 1565 1565 1564 1563 1563 1563 1562 1562 1562 1562 1561 1561
1535 1537 1539 1540 1541 1542 1543 1545 1546 1548 1550 1551 1552 1554 1556 1558 1559 1560 1561 1562 1563 1564 1565 1566 1566 1567 1567 1568 1568 1568 1568 1567 1567 1567 1567 1567 1567 1566 1566 1566 1565 1565 1564 1564 1564 1564 1563 1563 1562
1536 1537 1539 1541 1541 1543 1543 1544 1546 1548 1550 1551 1553 1555 1556 1558 1559 1560 1562 1563 1564 1565 1566 1566 1567 1567 1568 1569 1569 1569 1569 1569 1569 1568 1568 1568 1568 1568 1567 1567 1566 1566 1566 1566 1565 1565 1565 1564 1564
1535 1536 1539 1540 1541 1543 1544 1545 1545 1548 1550 1551 1553 1554 1556 1558 1559 1560 1562 1563 1564 1565 1566 1567 1567 1568 1569 1569 1569 1570 1570 1569 1569 1569 1569 1569 1569 1569 1568 1568 1567 1567 1567 1567 1566 1566 1566 1566 1565
1534 1537 1539 1540 1540 1540 1541 1542 1544 1547 1549 1550 1552 1554 1556 1557 1559 1560 1561 1563 1564 1565 1566 1567 1567 1568 1568 1569 1569 1570 1570 1570 1570 1570 1570 1570 1570 1569 1569 1569 1568 1568 1568 1567 1567 1567 1567 1567 1566
1536 1535 1537 1538 1538 1539 1539 1540 1542 1545 1547 1548 1550 1552 1554 1556 1558 1559 1561 1562 1563 1564 1565 1566 1567 1568 1568 1569 1570 1570 1570 1570 1570 1570 1570 1570 1570 1570 1570 1569 1569 1569 1568 1568 1568 1568 1568 1567 1567
1531 1534 1536 1536 1536 1538 1537 1537 1538 1542 1545 1546 1548 1550 1552 1554 1557 1558 1560 1561 1563 1564 1565 1566 1567 1567 1568 1569 1570 1570 1571 1571 1571 1571 1571 1570 1570 1570 1570 1570 1569 1569 1569 1569 1569 1569 1568 1568 1568
1532 1534 1535 1535 1535 1536 1535 1535 1535 1538 1541 1542 1544 1547 1549 1552 1555 1557 1558 1560 1562 1563 1564 1566 1566 1567 1568 1568 1569 1570 1570 1571 1571 1570 1570 1570 1570 1570 1570 1570 1569 1569 1569 1569 1569 1569 1569 1568 1568
1532 1533 1533 1535 1535 1535 1535 1534 1532 1534 1538 1540 1542 1544 1546 1549 1552 1554 1556 1559 1560 1562 1563 1564 1566 1567 1567 1568 1569 1570 1570 1571 1571 1571 1571 1570 1570 1570 1570 1569 1569 1569 1569 1569 1569 1569 1569 1569 1569
1532 1530 1532 1534 1535 1535 1536 1538 1528 1528 1532 1536 1538 1541 1543 1546 1549 1552 1554 1556 1558 1560 1562 1563 1564 1566 1566 1567 1569 1570 1570 1571 1571 1571 1571 1571 1570 1570 1570 1570 1569 1569 1569 1569 1569 1569 1569 1569 1569
1529 1530 1532 1532 1533 1534 1533 1535 1527 1525 1528 1529 1532 1536 1539 1543 1546 1549 1551 1554 1556 1558 1560 1561 1563 1564 1565 1567 1568 1569 1570 1570 1571 1571 1571 1571 1571 1570 1570 1570 1570 1570 1569 1569 1569 1569 1569 1569 1569
1529 1531 1532 1531 1531 1539 1531 1534 1530 1520 1521 1522 1526 1531 1535 1539 1542 1546 1549 1551 1554 1556 1557 1559 1561 1562 1564 1565 1567 1568 1569 1569 1570 1570 1571 1571 1571 1571 1570 1570 1570 1570 1570 1569 1569 1569 1569 1569 1569
1528 1531 1538 1540 1539 1535 1526 1530 1526 1517 1518 1520 1523 1527 1531 1535 1539 1542 1545 1548 1551 1553 1555 1557 1559 1561 1562 1564 1566 1567 1568 1568 1569 1570 1570 1571 1571 1571 1571 1570 1570 1570 1570 1569 1569 1569 1569 1569 1569
1524 1525 1535 1543 1540 1531 1528 1528 1518 1516 1519 1520 1522 1524 1528 1532 1535 1539 1542 1545 1548 1550 1553 1555 1557 1559 1560 1562 1564 1566 1567 1567 1568 1569 1570 1570 1571 1570 1570 1570 1570 1570 1569 1569 1569 1569 1569 1569 1568
1523 1523 1521 1527 1529 1532 1526 1520 1515 1515 1516 1518 1520 1522 1525 1529 1532 1536 1539 1542 1545 1548 1550 1553 1555 1557 1559 1561 1562 1564 1565 1566 1567 1568 1569 1569 1570 1570 1570 1570 1570 1569 1569 1569 1569 1569 1568 1568 1568
1519 1518 1523 1528 1535 1536 1528 1521 1517 1513 1514 1515 1518 1520 1523 1526 1530 1533 1537 1540 1543 1546 1548 1551 1553 1555 1557 1559 1561 1562 1563 1564 1566 1567 1568 1569 1569 1569 1569 1569 1569 1569 1569 1569 1569 1569 1568 1568 1567
1520 1521 1520 1521 1524 1531 1532 1523 1510 1511 1512 1514 1516 1518 1521 1524 1527 1531 1534 1537 1540 1543 1546 1548 1551 1553 1555 1557 1559 1560 1561 1563 1564 1566 1567 1567 1568 1568 1569 1569 1569 1569 1568 1568 1568 1568 1568 1568 1568
1513 1513 1516 1524 1525 1523 1525 1521 1508 1511 1513 1514 1515 1517 1520 1522 1525 1528 1532 1534 1537 1540 1543 1546 1548 1551 1553 1555 1557 1558 1560 1561 1563 1564 1565 1566 1567 1567 1568 1568 1568 1568 1568 1568 1568 1568 1567 1567 1567